Regional Weather Roundup
Issued by NWS Charleston, SC

Current Version | Previous Version | Text Only | Print | Product List | Glossary Off
Versions: 1 2 3 4 5 6 7 8 9 10 11 12 13 14 15 16 17 18 19 20 21 22 23 24 25 26 27 28 29 30 31 32 33 34 35 36 37 38 39 40 41 42 43 44 45 46 47 48 49 50

000
ASUS42 KCHS 281112
RWRCHS
REGIONAL WEATHER ROUNDUP
NATIONAL WEATHER SERVICE CHARLESTON SC
700 AM EDT SAT MAR 28 2015

NOTE: "FAIR" INDICATES FEW OR NO CLOUDS BELOW 12,000 FEET WITH NO
SIGNIFICANT WEATHER AND/OR OBSTRUCTIONS TO VISIBILITY.

NOT ALL STATIONS ARE QUALITY CONTROLLED BY THE NATIONAL
WEATHER SERVICE. USE DATA WITH CAUTION...ESPECIALLY
DEWPOINT OBSERVATIONS.

SCZ027-030-031-034>040-042>050-281200-
...SOUTHEAST SOUTH CAROLINA...

CITY           SKY/WX    TMP DP  RH WIND       PRES   REMARKS
N CHARLESTON   PTCLDY    43  41  93 W5        29.99R
WATERFRONT PRK   N/A     45 N/A N/A W5          N/A
MOUNT PLEASANT FAIR      45  43  93 W3        29.99R
PINOPOLIS        N/A     50  43  76 NW10      29.88R
MONCKS CORNER  FAIR      43  41  93 CALM      29.98R
SUMMERVILLE    FAIR      43  43 100 W3        29.99R
BEAUFORT MCAS  PTCLDY    45  37  73 NW10      30.01R
BEAUFORT ARPT  FAIR      46  41  81 W13       30.01R
HILTON HEAD IS NOT AVBL
WALTERBORO     SUNNY     41  39  93 W6        30.01R
ALLENDALE      FAIR      41  37  87 CALM      30.02R

...SOUTHERN MIDLANDS AND PEE DEE...

CITY           SKY/WX    TMP DP  RH WIND       PRES   REMARKS
GEORGETOWN     NOT AVBL
KINGSTREE      NOT AVBL
ORANGEBURG     CLEAR     41  35  79 NW5       30.00R
BARNWELL       FAIR      39  37  93 W6        30.03R WCI  35
AIKEN          FAIR      34  32  93 W6        30.04R WCI  29
MANNING        FLURRIES  41  34  75 NW3       29.98R
COLUMBIA       PTCLDY    43  27  53 NW8       29.99R
SUMTER         PTCLDY    40  37  89 W3        29.97R
FLORENCE       CLOUDY    43  35  73 N8        29.97R
MYRTLE BEACH   MOCLDY    46  43  87 NW8       29.97R
N MYRTLE BEACH MOCLDY    42  40  92 CALM      29.95R

$$

GAZ063-065-086>088-099>101-113>116-118-119-134>141-150-281200-
...SOUTHEAST GEORGIA...

CITY           SKY/WX    TMP DP  RH WIND       PRES   REMARKS
SAVANNAH ARPT  CLEAR     43  34  70 W7        30.03R
HUNTER AAF     CLEAR     41  37  87 W8        30.01R
FORT STEWART   CLEAR     43  33  67 W6        30.03R
STATESBORO     CLEAR     40  33  76 NW6       30.04R WCI  36
SYLVANIA       SUNNY     42  34  73 NW8       30.04R
CLAXTON        FAIR      41  34  75 W3        30.05R

...CSRA...CENTRAL AND FAR SOUTHEAST GEORGIA...

CITY           SKY/WX    TMP DP  RH WIND       PRES   REMARKS
THOMSON        CLEAR     39  32  76 CALM      30.08R
AUGUSTA-BUSH   CLEAR     40  29  64 W8        30.03R WCI  34
AUGUSTA-DANIEL CLEAR     41  28  60 W8        30.03R
SWAINSBORO     FAIR      37  28  70 NW3       30.06R
VIDALIA        CLEAR     41  34  75 CALM      30.05R
EASTMAN        FAIR      40  36  84 W5        30.10R WCI  37
HAZLEHURST     FAIR      41  36  81 W3        30.06R
ALMA           CLEAR     42  33  70 NW7       30.07R
WAYCROSS       CLEAR     44  37  76 CALM      30.08R
JESUP          FAIR      43  37  81 NW5       30.07R
BAXLEY         FAIR      43  36  75 NW5       30.07R
BRUNSWICK      CLEAR     45  36  70 W6        30.06R
SAINT SIMONS   CLEAR     47  33  58 W8        30.05R

$$

SCZ027-028-034-036>038-045-046-048>050-GAZ119-141-281200-
...LAKE AND SUPPLEMENTAL COASTAL OBSERVATIONS...

STATION/POSITION TIME  TEMP    WIND        PRES    WAVE   SWELL
                       AIR SEA DIR/SP/G            HT/PER HT/PER/DIR
                 (UTC) (F)     (DEG/KT/KT) (MB)    (FT/S) (FT/S/D)
UPR LAKE MARION  NOT AVBL
WINYAH BAY       0945   46     290/  6     1012.0
LAKE MURRAY      1000   42     310/  1/  8 1014.6R
ACE BASIN NERRS  NOT AVBL
FORT PULASKI     1000   48 60  300/ 11/ 13 1016.2R
SAPELO ISLAND    1000   48     270/  8     1016.0R

$$

ANZ835-935-AMZ111-154-330-350-352-354-370-450-454-472-281200-
...C-MAN AND BUOY OBSERVATIONS...

STATION/POSITION TIME  TEMP    WIND        PRES    WAVE   SWELL
                       AIR SEA DIR/SP/G            HT/PER HT/PER/DIR
                 (UTC) (F)     (DEG/KT/KT) (MB)    (FT/S) (FT/S/D)
BUOY 41004       1050   53 68  310/ 17/ 23 1013.5R   5/ 6   3/ 7
BUOY 41008       1050   51 60  310/ 19/ 23 1016.2R   3/ 4   2/ 20/ 9
FOLLY BEACH CMAN 1100   45     300/  5/  7 1015.5R
CAPERS NEARSHORE 1000   49     310/ 14/ 17   N/A
FRIPP NEARSHORE  1000   51     300/ 16/ 19 1014.8R


STATION/POSITION TIME  TEMP    WIND        PRES    WAVE   SWELL
                       AIR SEA DIR/SP/G            HT/PER HT/PER/DIR
                 (UTC) (F)     (DEG/KT/KT) (MB)    (FT/S) (FT/S/D)
5E ST. MARYS GA  1021      61                N/A     3/ 3
FRYING PAN BUOY  1050   51 64  330/ 16/ 19 1013.3R   6/ 7   3/120/ 8
BUOY 41025       NOT AVBL
CAPE LOOKOUT NC  1100   42     310/ 12/ 15 1012.3R
BUOY 41002       1050   64 69  290/ 25/ 29 1009.4R  12/ 8
BUOY 41010       1020   67 75  300/ 23/ 29 1014.3R
ST AUGUSTINE FL  1100   48 59  290/  6/  6 1019.2R


$$



USA.gov is the U.S. government's official web portal to all federal, state and local government web resources and services.